GW1859 Weather Reports


Display with metric or nautical units.
time (UTC)temp
F
wind
direction
speed
MPH
gust
MPH
rain 1hr
in
rain 24hr
in
rain mn
in
humidity
%
barometer
mb
20260508233601 79 312 3.0 5.0 0.00 0.00 0.00 37 1009.8
20260508233059 78 329 3.0 7.0 0.00 0.00 0.00 37 1009.9
20260508232555 79 62 1.0 3.0 0.00 0.00 0.00 37 1009.7
20260508232052 80 69 1.0 2.0 0.00 0.00 0.00 37 1009.3
20260508231550 80 137 0.0 0.0 0.00 0.00 0.00 37 1009.3
20260508231047 80 140 1.0 2.0 0.00 0.00 0.00 37 1009.5
20260508230543 80 125 2.0 2.0 0.00 0.00 0.00 36 1009.3
20260508230040 80 106 1.0 2.0 0.00 0.00 0.00 37 1009.3
20260508225537 80 316 1.0 3.0 0.00 0.00 0.00 37 1009.6
20260508225034 80 43 3.0 6.0 0.00 0.00 0.00 36 1009.3
20260508224532 81 326 7.0 10.0 0.00 0.00 0.00 37 1009.2
20260508224029 80 104 2.0 2.0 0.00 0.00 0.00 39 1009.1
20260508223527 81 102 2.0 3.0 0.00 0.00 0.00 39 1009.2
20260508223024 80 115 0.0 0.0 0.00 0.00 0.00 41 1009.3
20260508222521 82 347 1.0 2.0 0.00 0.00 0.00 40 1009.0
20260508222018 81 105 2.0 2.0 0.00 0.00 0.00 42 1009.2
20260508221514 80 96 2.0 5.0 0.00 0.00 0.00 42 1008.9
20260508221010 82 75 3.0 6.0 0.00 0.00 0.00 40 1009.0
20260508220507 83 290 2.0 2.0 0.00 0.00 0.00 38 1008.7
20260508220003 82 85 2.0 2.0 0.00 0.00 0.00 37 1008.9
20260508215500 82 26 5.0 7.0 0.00 0.00 0.00 37 1008.8
20260508214956 82 125 0.0 0.0 0.00 0.00 0.00 38 1009.1
20260508214454 81 68 4.0 5.0 0.00 0.00 0.00 38 1008.8
20260508213950 83 7 4.0 6.0 0.00 0.00 0.00 36 1008.7
20260508213448 83 19 3.0 5.0 0.00 0.00 0.00 37 1008.7
20260508212943 82 128 0.0 1.0 0.00 0.00 0.00 39 1008.7
20260508212440 82 331 3.0 3.0 0.00 0.00 0.00 38 1009.0
20260508211936 81 124 2.0 2.0 0.00 0.00 0.00 38 1009.2
20260508211431 81 125 0.0 1.0 0.00 0.00 0.00 41 1009.1
20260508210929 80 103 2.0 2.0 0.00 0.00 0.00 41 1009.1
20260508210426 81 115 2.0 2.0 0.00 0.00 0.00 39 1009.2
20260508205922 78 17 2.0 3.0 0.00 0.00 0.00 41 1009.2
20260508205419 78 122 1.0 3.0 0.00 0.00 0.00 41 1008.8
20260508204915 78 240 1.0 2.0 0.00 0.00 0.00 42 1009.3
20260508204413 78 119 1.0 1.0 0.00 0.00 0.00 45 1009.2
20260508203908 77 48 3.0 5.0 0.00 0.00 0.00 45 1009.5
20260508203404 77 121 0.0 1.0 0.00 0.00 0.00 47 1009.3
20260508202900 78 19 3.0 5.0 0.00 0.00 0.00 43 1009.6
20260508202358 79 298 3.0 3.0 0.00 0.00 0.00 43 1009.7
20260508201855 81 300 3.0 3.0 0.00 0.00 0.00 41 1009.7
20260508201351 80 107 1.0 2.0 0.00 0.00 0.00 45 1009.7
20260508200848 80 144 0.0 0.0 0.00 0.00 0.00 45 1009.6
20260508200345 78 98 0.0 0.0 0.00 0.00 0.00 46 1009.5
20260508195840 77 261 2.0 2.0 0.00 0.00 0.00 49 1009.7
20260508195337 74 277 3.0 3.0 0.00 0.00 0.00 49 1010.0
20260508194833 73 79 1.0 2.0 0.00 0.00 0.00 49 1009.9
20260508194331 73 126 0.0 0.0 0.00 0.00 0.00 52 1009.8
20260508193828 72 84 1.0 2.0 0.00 0.00 0.00 52 1010.1
20260508193324 73 131 0.0 0.0 0.00 0.00 0.00 54 1010.3
20260508192820 72 162 2.0 2.0 0.00 0.00 0.00 53 1010.2
20260508192318 73 203 2.0 2.0 0.00 0.00 0.00 52 1010.2
20260508191814 73 241 1.0 2.0 0.00 0.00 0.00 51 1010.4
20260508191312 73 239 3.0 3.0 0.00 0.00 0.00 52 1010.6
20260508190804 72 155 1.0 1.0 0.00 0.00 0.00 54 1010.2
20260508190259 72 145 2.0 2.0 0.00 0.00 0.00 54 1010.3
20260508185756 73 126 0.0 0.0 0.00 0.00 0.00 55 1010.0
20260508185254 73 348 2.0 2.0 0.00 0.00 0.00 53 1009.7
20260508184750 71 286 2.0 2.0 0.00 0.00 0.00 54 1009.6
20260508184248 71 31 1.0 2.0 0.00 0.00 0.00 55 1009.7
20260508183745 71 87 0.0 1.0 0.00 0.00 0.00 56 1009.8
20260508183241 71 330 2.0 3.0 0.00 0.00 0.00 55 1010.5
20260508182737 72 165 1.0 1.0 0.00 0.00 0.00 55 1010.4
20260508182234 71 127 1.0 2.0 0.00 0.00 0.00 55 1010.6
20260508181729 71 159 1.0 1.0 0.00 0.00 0.00 57 1010.8
20260508181227 71 165 1.0 2.0 0.00 0.00 0.00 57 1011.1
20260508180723 70 171 0.0 0.0 0.00 0.00 0.00 57 1010.6
20260508180220 70 237 3.0 5.0 0.00 0.00 0.00 56 1010.4
20260508175717 71 190 3.0 3.0 0.00 0.00 0.00 56 1010.5
20260508175214 71 251 3.0 3.0 0.00 0.00 0.00 55 1010.5
20260508174712 71 219 3.0 5.0 0.00 0.00 0.00 55 1010.4
20260508174208 71 278 3.0 3.0 0.00 0.00 0.00 55 1010.8
20260508173704 71 178 1.0 1.0 0.00 0.00 0.00 57 1011.1
20260508173200 71 294 1.0 2.0 0.00 0.00 0.00 56 1010.9
20260508172658 72 197 4.0 7.0 0.00 0.00 0.00 55 1011.1
20260508172155 72 166 1.0 2.0 0.00 0.00 0.00 54 1011.2
20260508171651 73 249 2.0 2.0 0.00 0.00 0.00 54 1011.2
20260508171147 73 322 2.0 3.0 0.00 0.00 0.00 53 1011.1
20260508170645 73 307 2.0 5.0 0.00 0.00 0.00 53 1010.8
20260508170142 73 179 2.0 5.0 0.00 0.00 0.00 53 1011.1
20260508165639 74 165 3.0 3.0 0.00 0.00 0.00 52 1010.9
20260508165136 73 234 3.0 5.0 0.00 0.00 0.00 53 1011.0
20260508164632 74 218 2.0 3.0 0.00 0.00 0.00 53 1011.0
20260508164129 73 191 3.0 3.0 0.00 0.00 0.00 53 1011.1
20260508163627 73 226 4.0 6.0 0.00 0.00 0.00 54 1011.2
20260508163123 73 167 3.0 5.0 0.00 0.00 0.00 53 1010.9
20260508162614 72 248 3.0 3.0 0.00 0.00 0.00 56 1011.0
20260508162112 71 177 4.0 5.0 0.00 0.00 0.00 55 1010.7
20260508161608 72 183 4.0 6.0 0.00 0.00 0.00 55 1010.6
20260508161106 71 198 2.0 3.0 0.00 0.00 0.00 57 1010.6
20260508160604 70 159 1.0 2.0 0.00 0.00 0.00 60 1011.0
20260508160101 69 178 1.0 2.0 0.00 0.00 0.00 60 1010.9
20260508155558 69 196 3.0 6.0 0.00 0.00 0.00 60 1011.4
20260508155055 69 161 2.0 2.0 0.00 0.00 0.00 60 1011.4
20260508154552 69 163 2.0 3.0 0.00 0.00 0.00 61 1011.4
20260508154049 68 234 4.0 6.0 0.00 0.00 0.00 61 1011.3
20260508153545 69 229 4.0 5.0 0.00 0.00 0.00 61 1011.3
20260508153042 68 186 3.0 3.0 0.00 0.00 0.00 62 1011.3
20260508152540 67 157 2.0 6.0 0.00 0.00 0.00 63 1011.4
20260508152034 67 211 2.0 3.0 0.00 0.00 0.00 63 1011.5
20260508151531 67 223 2.0 3.0 0.00 0.00 0.00 63 1011.5
20260508151028 66 188 3.0 5.0 0.00 0.00 0.00 64 1011.7
20260508150525 66 214 3.0 3.0 0.00 0.00 0.00 65 1011.8
20260508150021 66 131 1.0 2.0 0.00 0.00 0.00 65 1011.5
20260508145518 65 189 4.0 5.0 0.00 0.00 0.00 66 1011.5
20260508145014 65 133 1.0 1.0 0.00 0.00 0.00 66 1011.5
20260508144512 64 163 3.0 3.0 0.00 0.00 0.00 67 1011.5
20260508144009 64 177 3.0 3.0 0.00 0.00 0.00 67 1012.1
20260508143507 64 181 2.0 2.0 0.00 0.00 0.00 68 1012.4
20260508143003 64 216 1.0 3.0 0.00 0.00 0.00 67 1012.5
20260508142500 64 158 1.0 2.0 0.00 0.00 0.00 67 1012.6
20260508141956 64 170 0.0 0.0 0.00 0.00 0.00 68 1012.3
20260508141453 63 232 2.0 3.0 0.00 0.00 0.00 68 1012.2
20260508140951 63 222 2.0 3.0 0.00 0.00 0.00 69 1012.1
20260508140448 62 163 0.0 0.0 0.00 0.00 0.00 69 1012.6
20260508135943 62 165 3.0 3.0 0.00 0.00 0.00 70 1012.5
20260508135440 62 143 0.0 0.0 0.00 0.00 0.00 71 1012.4
20260508134937 61 198 0.0 1.0 0.00 0.00 0.00 71 1012.4
20260508134433 61 313 2.0 2.0 0.00 0.00 0.00 72 1012.5
20260508133930 60 178 1.0 1.0 0.00 0.00 0.00 72 1012.4
20260508133428 59 161 3.0 3.0 0.00 0.00 0.00 73 1012.4
20260508132924 59 149 0.0 0.0 0.00 0.00 0.00 75 1012.4
20260508132422 58 195 1.0 1.0 0.00 0.00 0.00 74 1012.3
20260508131919 58 314 0.0 0.0 0.00 0.00 0.00 75 1012.4
20260508131414 58 187 2.0 3.0 0.00 0.00 0.00 74 1012.1
20260508130911 57 220 2.0 3.0 0.00 0.00 0.00 75 1012.1
20260508130408 57 191 2.0 2.0 0.00 0.00 0.00 76 1012.0
20260508125904 56 189 2.0 2.0 0.00 0.00 0.00 76 1012.1
20260508125400 56 236 1.0 1.0 0.00 0.00 0.00 76 1012.0
20260508124858 55 147 1.0 1.0 0.00 0.00 0.00 77 1011.6
20260508124355 55 178 1.0 2.0 0.00 0.00 0.00 78 1011.6
20260508123853 54 169 1.0 2.0 0.00 0.00 0.00 78 1011.6
20260508123352 54 220 3.0 5.0 0.00 0.00 0.00 78 1011.6
20260508122847 54 208 2.0 2.0 0.00 0.00 0.00 78 1011.5
20260508122344 53 171 1.0 1.0 0.00 0.00 0.00 78 1011.5
20260508121842 53 146 0.0 0.0 0.00 0.00 0.00 78 1011.7
20260508121340 53 137 0.0 1.0 0.00 0.00 0.00 78 1011.6
20260508120837 53 170 3.0 3.0 0.00 0.00 0.00 78 1011.7
20260508120335 52 167 0.0 1.0 0.00 0.00 0.00 78 1011.6
20260508115832 52 181 1.0 1.0 0.00 0.00 0.00 78 1011.3
20260508115330 52 158 1.0 1.0 0.00 0.00 0.00 78 1011.5
20260508114826 52 124 0.0 0.0 0.00 0.00 0.00 78 1011.6
20260508114323 52 159 0.0 1.0 0.00 0.00 0.00 77 1011.5
20260508113820 52 152 0.0 0.0 0.00 0.00 0.00 77 1011.5
20260508113318 52 146 0.0 0.0 0.00 0.00 0.00 77 1011.8
20260508112814 52 195 1.0 2.0 0.00 0.00 0.00 77 1011.8
20260508112312 52 171 2.0 3.0 0.00 0.00 0.00 76 1011.7
20260508111808 52 178 2.0 2.0 0.00 0.00 0.00 76 1011.7
20260508111305 52 159 0.0 1.0 0.00 0.00 0.00 76 1011.8
20260508110802 52 174 0.0 1.0 0.00 0.00 0.00 75 1011.7
20260508110300 52 193 0.0 0.0 0.00 0.00 0.00 75 1011.6
20260508105759 53 153 0.0 1.0 0.00 0.00 0.00 74 1011.5
20260508105256 53 188 1.0 1.0 0.00 0.00 0.00 74 1011.4
20260508104753 53 191 2.0 3.0 0.00 0.00 0.00 73 1011.6
20260508104250 53 157 1.0 1.0 0.00 0.00 0.00 73 1011.4
20260508103748 53 178 1.0 1.0 0.00 0.00 0.00 72 1011.8
20260508103244 53 191 1.0 2.0 0.00 0.00 0.00 72 1011.6
20260508102741 53 150 0.0 1.0 0.00 0.00 0.00 72 1011.8
20260508102240 54 161 0.0 0.0 0.00 0.00 0.00 72 1012.0
20260508101737 54 159 0.0 0.0 0.00 0.00 0.00 71 1011.7
20260508101234 54 179 0.0 1.0 0.00 0.00 0.00 71 1011.5
20260508100732 55 176 0.0 1.0 0.00 0.00 0.00 70 1011.8
20260508100230 55 169 1.0 1.0 0.00 0.00 0.00 69 1011.6
20260508095725 55 186 1.0 2.0 0.00 0.00 0.00 68 1011.7
20260508095223 56 214 1.0 2.0 0.00 0.00 0.00 67 1011.6
20260508094719 56 147 1.0 1.0 0.00 0.00 0.00 67 1011.6
20260508094216 56 229 2.0 2.0 0.00 0.00 0.00 66 1011.6
20260508093714 56 151 1.0 1.0 0.00 0.00 0.00 66 1011.6
20260508093212 56 188 1.0 1.0 0.00 0.00 0.00 66 1011.5
20260508092708 56 156 1.0 2.0 0.00 0.00 0.00 65 1011.6
20260508092207 56 189 1.0 2.0 0.00 0.00 0.00 65 1011.5
20260508091704 56 155 1.0 1.0 0.00 0.00 0.00 64 1011.5
20260508091201 57 166 1.0 2.0 0.00 0.00 0.00 64 1011.4
20260508090659 57 162 0.0 1.0 0.00 0.00 0.00 63 1011.4
20260508090156 57 190 2.0 3.0 0.00 0.00 0.00 63 1011.5
20260508085651 57 173 2.0 2.0 0.00 0.00 0.00 62 1011.5
20260508085149 57 229 2.0 5.0 0.00 0.00 0.00 61 1011.6
20260508084645 57 174 1.0 2.0 0.00 0.00 0.00 61 1011.5
20260508084143 57 206 3.0 3.0 0.00 0.00 0.00 60 1011.4
20260508083640 57 212 4.0 6.0 0.00 0.00 0.00 60 1011.2
20260508083138 58 189 4.0 7.0 0.00 0.00 0.00 60 1011.4
20260508082632 57 201 2.0 2.0 0.00 0.00 0.00 60 1011.4
20260508082130 58 169 1.0 2.0 0.00 0.00 0.00 59 1011.5
20260508081627 57 224 2.0 3.0 0.00 0.00 0.00 59 1011.6
20260508081124 57 182 2.0 3.0 0.00 0.00 0.00 59 1011.8
20260508080621 57 163 1.0 1.0 0.00 0.00 0.00 59 1011.7
20260508080119 57 195 3.0 3.0 0.00 0.00 0.00 59 1011.6
20260508075615 57 186 1.0 2.0 0.00 0.00 0.00 60 1011.7
20260508075112 57 187 5.0 8.0 0.00 0.00 0.00 60 1011.7
20260508074610 57 162 2.0 3.0 0.00 0.00 0.00 60 1011.7
20260508074107 57 172 2.0 3.0 0.00 0.00 0.00 60 1012.0
20260508073604 56 177 2.0 2.0 0.00 0.00 0.00 60 1012.1
20260508073102 56 221 1.0 2.0 0.00 0.00 0.00 62 1012.3
20260508072557 55 172 1.0 2.0 0.00 0.00 0.00 62 1012.3
20260508072054 54 179 2.0 3.0 0.00 0.00 0.00 64 1012.2
20260508071552 54 123 0.0 1.0 0.00 0.00 0.00 66 1012.3
20260508071050 54 190 1.0 2.0 0.00 0.00 0.00 65 1012.5
20260508070547 54 134 0.0 0.0 0.00 0.00 0.00 66 1012.2
20260508070045 54 147 0.0 0.0 0.00 0.00 0.00 65 1012.3
20260508065543 54 146 0.0 0.0 0.00 0.00 0.00 65 1012.3
20260508065041 55 154 0.0 1.0 0.00 0.00 0.00 64 1012.2
20260508064538 55 151 0.0 0.0 0.00 0.00 0.00 64 1012.3
20260508064036 55 130 0.0 0.0 0.00 0.00 0.00 64 1012.3
20260508063533 55 128 1.0 1.0 0.00 0.00 0.00 64 1012.3
20260508063031 55 183 1.0 2.0 0.00 0.00 0.00 63 1012.2
20260508062528 55 176 1.0 1.0 0.00 0.00 0.00 63 1012.3
20260508062025 56 183 1.0 1.0 0.00 0.00 0.00 62 1012.3
20260508061523 56 140 2.0 5.0 0.00 0.00 0.00 62 1012.2
20260508061019 56 149 1.0 1.0 0.00 0.00 0.00 61 1012.5
20260508060516 56 218 2.0 3.0 0.00 0.00 0.00 61 1012.4
20260508060014 57 165 1.0 2.0 0.00 0.00 0.00 60 1012.2
20260508055509 57 171 1.0 1.0 0.00 0.00 0.00 60 1012.4
20260508055006 57 182 1.0 2.0 0.00 0.00 0.00 59 1012.5
20260508054503 57 197 2.0 2.0 0.00 0.00 0.00 59 1012.4
20260508054000 57 211 3.0 3.0 0.00 0.00 0.00 58 1012.3
20260508053457 58 177 2.0 2.0 0.00 0.00 0.00 58 1012.3
20260508052955 58 199 2.0 2.0 0.00 0.00 0.00 57 1012.6
20260508052452 58 126 0.0 1.0 0.00 0.00 0.00 57 1012.5
20260508051948 59 206 1.0 2.0 0.00 0.00 0.00 56 1012.5
20260508051444 59 234 2.0 5.0 0.00 0.00 0.00 56 1012.6
20260508050940 59 150 0.0 0.0 0.00 0.00 0.00 55 1012.5
20260508050437 59 194 2.0 3.0 0.00 0.00 0.00 55 1012.6
20260508045933 59 189 2.0 2.0 0.00 0.00 0.00 54 1012.6
20260508045431 59 198 1.0 2.0 0.00 0.00 0.00 54 1012.6
20260508044928 60 138 0.0 1.0 0.00 0.00 0.00 53 1012.7
20260508044425 60 216 5.0 7.0 0.00 0.00 0.00 52 1012.9
20260508043920 60 272 1.0 3.0 0.00 0.00 0.00 52 1012.7
20260508043418 60 167 2.0 2.0 0.00 0.00 0.00 52 1012.7
20260508042914 61 183 1.0 3.0 0.00 0.00 0.00 51 1012.7
20260508042412 61 183 1.0 1.0 0.00 0.00 0.00 50 1012.7
20260508041909 61 195 2.0 2.0 0.00 0.00 0.00 49 1012.8
20260508041405 62 145 2.0 3.0 0.00 0.00 0.00 49 1012.7
20260508040902 62 302 2.0 2.0 0.00 0.00 0.00 48 1012.6
20260508040359 62 241 2.0 2.0 0.00 0.00 0.00 47 1012.4
20260508035857 62 137 0.0 1.0 0.00 0.00 0.00 47 1012.6
20260508035354 63 178 2.0 2.0 0.00 0.00 0.00 47 1012.8
20260508034850 63 174 2.0 3.0 0.00 0.00 0.00 46 1012.8
20260508034347 63 84 3.0 5.0 0.00 0.00 0.00 46 1013.0
20260508033844 64 173 1.0 2.0 0.00 0.00 0.00 45 1012.7
20260508033343 64 214 4.0 6.0 0.00 0.00 0.00 45 1012.7
20260508032839 64 142 0.0 0.0 0.00 0.00 0.00 45 1012.7
20260508032337 64 208 2.0 3.0 0.00 0.00 0.00 45 1012.7
20260508031833 64 159 2.0 3.0 0.00 0.00 0.00 45 1012.7
20260508031330 64 170 3.0 5.0 0.00 0.00 0.00 44 1012.7
20260508030827 64 131 1.0 1.0 0.00 0.00 0.00 44 1012.9
20260508030324 64 145 1.0 5.0 0.00 0.00 0.00 43 1012.7
20260508025821 64 138 0.0 1.0 0.00 0.00 0.00 44 1012.8
20260508025318 65 87 0.0 1.0 0.00 0.00 0.00 43 1012.8
20260508024815 65 235 0.0 0.0 0.00 0.00 0.00 43 1012.7
20260508024311 65 195 0.0 1.0 0.00 0.00 0.00 42 1012.6
20260508023808 65 84 1.0 1.0 0.00 0.00 0.00 42 1012.4
20260508023305 65 131 0.0 1.0 0.00 0.00 0.00 42 1012.5
20260508022801 65 112 0.0 0.0 0.00 0.00 0.00 41 1012.4
20260508022257 65 125 0.0 0.0 0.00 0.00 0.00 41 1012.6
20260508021755 65 119 0.0 0.0 0.00 0.00 0.00 42 1012.5
20260508021250 65 135 0.0 0.0 0.00 0.00 0.00 43 1012.4
20260508020747 65 113 1.0 1.0 0.00 0.00 0.00 42 1012.5
20260508020245 66 126 0.0 0.0 0.00 0.00 0.00 41 1012.4
20260508015741 66 130 0.0 0.0 0.00 0.00 0.00 41 1012.1
20260508015238 67 134 0.0 0.0 0.00 0.00 0.00 41 1012.2
20260508014735 67 176 1.0 1.0 0.00 0.00 0.00 40 1012.0
20260508014232 68 146 0.0 0.0 0.00 0.00 0.00 40 1012.0
20260508013728 68 149 0.0 0.0 0.00 0.00 0.00 39 1012.0
20260508013224 68 136 2.0 2.0 0.00 0.00 0.00 38 1011.7
20260508012722 69 137 0.0 0.0 0.00 0.00 0.00 39 1011.6
20260508012219 70 130 0.0 0.0 0.00 0.00 0.00 37 1011.7
20260508011717 70 125 0.0 0.0 0.00 0.00 0.00 36 1011.7
20260508011214 71 144 0.0 0.0 0.00 0.00 0.00 35 1012.0
20260508010711 72 113 2.0 2.0 0.00 0.00 0.00 34 1011.7
20260508010209 72 175 0.0 0.0 0.00 0.00 0.00 34 1011.7
20260508005706 73 138 1.0 1.0 0.00 0.00 0.00 34 1011.6
20260508005202 73 158 1.0 1.0 0.00 0.00 0.00 32 1011.6
20260508004658 74 127 2.0 3.0 0.00 0.00 0.00 31 1011.5
20260508004154 74 132 0.0 1.0 0.00 0.00 0.00 31 1011.7
20260508003651 75 141 0.0 0.0 0.00 0.00 0.00 30 1011.7
20260508003149 76 157 3.0 3.0 0.00 0.00 0.00 29 1011.5
20260508002645 77 161 3.0 5.0 0.00 0.00 0.00 28 1011.8
20260508002143 77 216 3.0 3.0 0.00 0.00 0.00 27 1011.5
20260508001638 78 161 1.0 2.0 0.00 0.00 0.00 27 1011.5
20260508001134 78 243 2.0 2.0 0.00 0.00 0.00 27 1011.6
20260508000630 78 165 0.0 1.0 0.00 0.00 0.00 26 1011.5
20260508000128 78 229 2.0 3.0 0.00 0.00 0.00 26 1011.8
20260507235624 78 154 3.0 3.0 0.00 0.00 0.00 26 1011.7
20260507235122 79 184 1.0 2.0 0.00 0.00 0.00 26 1011.6
20260507234618 79 193 1.0 1.0 0.00 0.00 0.00 26 1012.0
20260507234115 79 190 1.0 1.0 0.00 0.00 0.00 26 1011.8